LiveATC.Net - Listen to live air traffic control over the Internet!


ICAO: ESMS  IATA: MMX   Airport: Malmo Airport
City: Svedala
Country: Sweden   Continent: Europe
ESMS METAR Weather: ESMS 171220Z 22002KT 5000 BR BKN007 OVC027 07/06 Q1022
ESMS Flight Activity (FlightAware)

ESMS Tower
Feed Status: DOWN
Last heard on: 2019-02-14 10:50:05 (3 days 2 hours 5 minutes ago)
ESMS Tower Audio Archives
FacilityFrequency
Malmo Tower118.800

NOTICE

Unauthorized use prohibited. See LiveATC.net Terms of Service


Find LiveATC Audio Streams


Airport/ARTCC Code

Frequency Search
(e.g., 124.400, 128.75)
Site-wide search
 


Browse LiveATC Feeds
Top 50 LiveATC Feeds
LiveATC Feed Map
Bad Weather Areas

LiveATC FAQ
Offer LiveATC feed
Contact LiveATC.net
Press Inquiries

LiveATC on iPhone
LiveATC on Android

Windows Phone
Windows 8/10

LiveATC Mobile
(Mobile browser)

ATC Audio Archives
Interesting Recordings

LiveATC Forums


Home Page
About LiveATC.net
Make a Donation
Terms of Use
Privacy Policy

Canadian Air Freqs

AIRMETs/SIGMETs

FAA Airport Status
Nat'l Airspace Status
Arrival Demand Charts


Server Software By:
Icecast.org
Liquidsoap